Bangor, ME

6:37 AM EST on December 06, 2019 (GMT -0500)
Bangor International

Weather History for KBGR - October, 2019

Change the Weather History Date:

Wednesday, October 30, 2019

  Actual Average Record
Temperature  
Mean Temperature 54 °F 42 °F  
Max Temperature 59 °F 52 °F 73 °F (1989)
Min Temperature 48 °F 33 °F 11 °F (1941)
Degree Days  
Heating Degree Days 12 23  
Month to date heating degree days 470 531  
Since 1 July heating degree days 684 803  
Cooling Degree Days 0 0  
Month to date cooling degree days 0 0  
Year to date cooling degree days 336 317  
Growing Degree Days 4 (Base 50)    
Moisture  
Dew Point 51 °F    
Average Humidity 90    
Maximum Humidity 100    
Minimum Humidity 75    
Precipitation  
Precipitation T in 0.12 in 1.61 in (1973)
Month to date precipitation 5.42 4.04  
Year to date precipitation 44.44 34.12  
Snow  
Snow 0.00 in 0.00 in 6.00 in (2011)
Month to date snowfall 0.0 0.1  
Since 1 July snowfall 0.0 0.1  
Since 1 September snowfall 0.0 0.1  
Snow Depth 0.00 in    
Sea Level Pressure  
Sea Level Pressure 30.26 in    
Wind  
Wind Speed 4 mph ()    
Max Wind Speed 9 mph    
Max Gust Speed 13 mph    
Visibility 9.6 miles    
Events      
T = Trace of Precipitation, MM = Missing Value Source: Averaged Metar Reports

Daily Weather History Graph

Daily Weather History Graph

Search for Another Location

Airport or City:

Astronomy

Oct. 30, 2019 Rise Set
Actual Time 7:10 AM EDT 5:26 PM EDT
Civil Twilight 6:39 AM EDT 5:57 PM EDT
Nautical Twilight 6:05 AM EDT 6:31 PM EDT
Astronomical Twilight 5:31 AM EDT 7:05 PM EDT
Moon 9:54 AM EDT (10/30) 7:26 PM EDT (10/30)
Length of Visible Light 11h 17m
Length of Day
10h 16m
Waxing Crescent, 8% of the Moon is Illuminated
Oct 30
Waxing Crescent
Nov 4
First Quarter
Nov 12
Full
Nov 19
Last Quarter
Nov 26
New

Hourly Weather History & Observations

Time (EDT) Temp. Dew Point Humidity Pressure Visibility Wind Dir Wind Speed Gust Speed Precip Events Conditions
12:53 AM 48.9 °F 48.0 °F 97% 30.31 in 9.0 mi SSW 4.6 mph - N/A   Overcast
1:02 AM 48.9 °F 48.0 °F 97% 30.31 in 9.0 mi South 5.8 mph - N/A   Overcast
1:53 AM 48.9 °F 48.0 °F 97% 30.29 in 10.0 mi South 9.2 mph - N/A   Overcast
2:53 AM 48.9 °F 48.0 °F 97% 30.28 in 10.0 mi South 5.8 mph - N/A   Overcast
3:02 AM 48.9 °F 48.0 °F 97% 30.28 in 10.0 mi SSW 3.5 mph - N/A   Overcast
3:53 AM 48.9 °F 48.0 °F 97% 30.27 in 10.0 mi South 6.9 mph - N/A   Overcast
4:12 AM 48.9 °F 48.0 °F 97% 30.27 in 10.0 mi South 5.8 mph - N/A   Overcast
4:53 AM 50.0 °F 48.9 °F 96% 30.28 in 10.0 mi SSW 4.6 mph - N/A   Overcast
5:53 AM 50.0 °F 48.9 °F 96% 30.28 in 9.0 mi South 3.5 mph - N/A   Overcast
6:53 AM 50.0 °F 48.9 °F 96% 30.28 in 5.0 mi SSW 4.6 mph - 0.00 in   Light Drizzle
7:53 AM 51.1 °F 50.0 °F 96% 30.30 in 9.0 mi South 4.6 mph - 0.00 in   Light Drizzle
8:53 AM 52.0 °F 50.0 °F 93% 30.31 in 10.0 mi Calm Calm - 0.00 in   Light Drizzle
9:53 AM 53.1 °F 51.1 °F 93% 30.31 in 10.0 mi Calm Calm - 0.00 in   Light Drizzle
10:53 AM 54.0 °F 51.1 °F 90% 30.30 in 10.0 mi South 5.8 mph - 0.00 in   Overcast
11:53 AM 55.0 °F 50.0 °F 83% 30.29 in 10.0 mi SSW 4.6 mph - N/A   Overcast
12:53 PM 55.9 °F 51.1 °F 84% 30.28 in 10.0 mi SW 6.9 mph - N/A   Overcast
1:53 PM 57.0 °F 51.1 °F 81% 30.27 in 10.0 mi Variable 4.6 mph - N/A   Overcast
2:53 PM 57.0 °F 51.1 °F 81% 30.25 in 10.0 mi SW 5.8 mph - N/A   Overcast
3:12 PM 57.0 °F 51.1 °F 81% 30.25 in 10.0 mi SW 3.5 mph - N/A   Overcast
3:49 PM 59.0 °F 51.8 °F 77% 30.24 in 10.0 mi Calm Calm - N/A   Mostly Cloudy
3:53 PM 59.0 °F 51.1 °F 75% 30.25 in 10.0 mi Calm Calm - N/A   Mostly Cloudy
3:54 PM 59.0 °F 51.1 °F 75% 30.24 in 10.0 mi Calm Calm - N/A   Mostly Cloudy
4:53 PM 57.0 °F 51.1 °F 81% 30.25 in 10.0 mi NNW 4.6 mph - N/A   Mostly Cloudy
5:53 PM 55.0 °F 51.1 °F 86% 30.25 in 10.0 mi Calm Calm - N/A   Overcast
6:19 PM 55.0 °F 52.0 °F 89% 30.25 in 10.0 mi Calm Calm - N/A   Overcast
6:53 PM 55.0 °F 51.1 °F 86% 30.25 in 10.0 mi NNE 4.6 mph - N/A   Overcast
7:53 PM 55.0 °F 51.1 °F 86% 30.25 in 10.0 mi Calm Calm - N/A   Overcast
8:53 PM 54.0 °F 52.0 °F 93% 30.24 in 10.0 mi Calm Calm - N/A   Overcast
9:39 PM 55.0 °F 54.0 °F 96% 30.23 in 10.0 mi SSE 3.5 mph - N/A   Overcast
9:53 PM 55.0 °F 53.1 °F 93% 30.23 in 10.0 mi SSE 3.5 mph - N/A   Overcast
10:06 PM 55.0 °F 53.1 °F 93% 30.22 in 10.0 mi SE 4.6 mph - N/A   Overcast
10:36 PM 55.0 °F 53.1 °F 93% 30.21 in 10.0 mi SSE 5.8 mph - N/A   Overcast
10:53 PM 55.0 °F 53.1 °F 93% 30.21 in 10.0 mi South 3.5 mph - N/A   Overcast
11:32 PM 55.0 °F 53.1 °F 93% 30.20 in 10.0 mi SSE 3.5 mph - N/A   Overcast
11:53 PM 55.0 °F 53.1 °F 93% 30.19 in 4.0 mi SSE 5.8 mph - N/A   Overcast